DW1980 Weather Reports


Display with metric or nautical units.
time (UTC)temp
F
wind
direction
speed
MPH
gust
MPH
rain 1hr
in
rain 24hr
in
rain mn
in
humidity
%
barometer
mb
20260503010854 53 343 2.0 6.0 0.00 0.02 0.02 51 1011.4
20260503010406 53 310 3.0 6.0 0.00 0.02 0.02 50 1011.3
20260503010123 53 313 2.0 5.0 0.00 0.02 0.02 50 1011.4
20260503010038 53 341 1.0 5.0 0.00 0.02 0.02 49 1010.7
20260503005851 53 300 2.0 5.0 0.00 0.02 0.02 49 1011.3
20260503005401 54 335 2.0 5.0 0.00 0.02 0.02 48 1011.2
20260503004851 54 306 1.0 4.0 0.00 0.02 0.02 49 1011.1
20260503004616 53 295 1.0 4.0 0.00 0.02 0.02 48 1011.2
20260503004539 53 309 1.0 4.0 0.00 0.02 0.02 48 1010.6
20260503004402 54 311 1.0 4.0 0.00 0.02 0.02 48 1011.1
20260503003846 54 301 2.0 4.0 0.00 0.02 0.02 47 1011.1
20260503003356 54 281 2.0 4.0 0.00 0.02 0.02 48 1011.1
20260503003120 53 325 1.0 3.0 0.00 0.02 0.02 49 1011.1
20260503003046 53 297 1.0 3.0 0.00 0.02 0.02 48 1010.5
20260503002843 54 325 1.0 3.0 0.00 0.02 0.02 48 1011.0
20260503002352 54 293 2.0 4.0 0.00 0.02 0.02 47 1011.0
20260503001842 54 294 2.0 4.0 0.00 0.02 0.02 49 1011.0
20260503001609 54 290 1.0 7.0 0.00 0.02 0.02 47 1011.0
20260503001536 54 355 1.0 7.0 0.00 0.02 0.02 46 1010.6
20260503001351 55 297 2.0 7.0 0.00 0.02 0.02 47 1011.0
20260503000841 55 290 3.0 7.0 0.00 0.02 0.02 47 1010.9
20260503000415 55 279 2.0 8.0 0.00 0.02 0.02 46 1010.9
20260503000117 54 304 2.0 8.0 0.00 0.02 0.02 46 1011.0
20260503000041 55 345 2.0 8.0 0.00 0.02 0.02 46 1010.4
20260502235840 55 294 2.0 8.0 0.00 0.02 0.02 47 1010.9
20260502235349 55 315 2.0 8.0 0.00 0.02 0.02 48 1010.8
20260502234840 56 309 3.0 8.0 0.00 0.02 0.02 47 1010.8
20260502234608 55 332 2.0 8.0 0.00 0.02 0.02 48 1010.8
20260502234539 55 286 1.0 4.0 0.00 0.02 0.02 47 1010.3
20260502234351 56 263 2.0 4.0 0.00 0.02 0.02 46 1010.7
20260502233841 56 298 1.0 3.0 0.00 0.02 0.02 48 1010.5
20260502233353 57 307 1.0 4.0 0.00 0.02 0.02 45 1010.6
20260502233119 56 20 1.0 4.0 0.00 0.02 0.02 45 1010.6
20260502233040 56 0 1.0 4.0 0.00 0.02 0.02 44 1010.1
20260502232840 57 290 2.0 4.0 0.00 0.02 0.02 44 1010.5
20260502232351 57 292 1.0 4.0 0.00 0.02 0.02 46 1010.5
20260502231840 57 302 1.0 4.0 0.00 0.02 0.02 45 1010.5
20260502231609 57 311 1.0 6.0 0.00 0.02 0.02 46 1010.4
20260502231539 57 286 1.0 6.0 0.00 0.02 0.02 46 1009.9
20260502231350 58 279 2.0 6.0 0.00 0.02 0.02 45 1010.4
20260502230839 58 303 3.0 8.0 0.00 0.02 0.02 44 1010.3
20260502230350 58 279 2.0 8.0 0.00 0.02 0.02 45 1010.3
20260502230115 58 360 2.0 8.0 0.00 0.02 0.02 44 1010.4
20260502230035 58 334 3.0 8.0 0.00 0.02 0.02 45 1009.9
20260502225837 58 5 3.0 6.0 0.00 0.02 0.02 46 1010.3
20260502225347 58 284 2.0 5.0 0.00 0.02 0.02 45 1010.3
20260502224842 58 279 1.0 7.0 0.00 0.02 0.02 47 1010.2
20260502224618 58 5 1.0 7.0 0.00 0.02 0.02 46 1010.2
20260502224542 58 348 0.0 7.0 0.00 0.02 0.02 45 1009.7
20260502224353 58 11 0.0 7.0 0.00 0.02 0.02 47 1010.2
20260502223843 58 340 2.0 5.0 0.00 0.02 0.02 47 1010.2
20260502223413 58 23 2.0 4.0 0.00 0.02 0.02 47 1010.2
20260502223040 57 309 0.0 5.0 0.00 0.02 0.02 46 1009.7
20260502223002 57 329 0.0 5.0 0.00 0.02 0.02 46 1010.2
20260502222901 58 292 1.0 5.0 0.00 0.02 0.02 48 1010.2
20260502222351 58 355 2.0 5.0 0.00 0.02 0.02 47 1010.2
20260502221901 58 314 3.0 5.0 0.00 0.02 0.02 47 1010.2
20260502221603 58 297 1.0 5.0 0.00 0.02 0.02 46 1010.2
20260502221540 58 34 2.0 5.0 0.00 0.02 0.02 46 1009.7
20260502221350 58 305 3.0 5.0 0.00 0.02 0.02 46 1010.2
20260502220838 59 317 3.0 8.0 0.00 0.02 0.02 47 1010.2
20260502220350 59 355 2.0 8.0 0.00 0.02 0.02 46 1010.0
20260502220111 58 274 3.0 8.0 0.00 0.02 0.02 47 1010.1
20260502220041 58 287 1.0 7.0 0.00 0.02 0.02 47 1009.6
20260502215838 59 284 3.0 7.0 0.00 0.02 0.02 46 1010.1
20260502215347 59 19 3.0 6.0 0.00 0.02 0.02 45 1010.0
20260502214837 60 338 2.0 8.0 0.00 0.02 0.02 45 1010.1
20260502214634 59 272 3.0 9.0 0.00 0.02 0.02 46 1010.1
20260502214538 59 275 2.0 9.0 0.00 0.02 0.02 45 1009.5
20260502214409 60 311 2.0 9.0 0.00 0.02 0.02 44 1010.1
20260502213839 60 325 3.0 9.0 0.00 0.02 0.02 45 1010.0
20260502213350 60 41 2.0 13.0 0.00 0.02 0.02 46 1010.0
20260502213111 60 287 5.0 13.0 0.00 0.02 0.02 45 1010.0
20260502213045 60 302 5.0 13.0 0.00 0.02 0.02 45 1009.5
20260502212836 60 279 5.0 11.0 0.00 0.02 0.02 44 1009.9
20260502212346 61 286 4.0 11.0 0.00 0.02 0.02 46 1009.9
20260502211836 61 41 1.0 6.0 0.00 0.02 0.02 49 1009.9
20260502211608 60 335 3.0 6.0 0.00 0.02 0.02 49 1009.9
20260502211545 60 294 1.0 6.0 0.00 0.02 0.02 49 1009.3
20260502211347 61 298 1.0 6.0 0.00 0.02 0.02 51 1009.8
20260502210837 60 281 3.0 6.0 0.00 0.02 0.02 51 1009.8
20260502210349 60 40 1.0 9.0 0.00 0.02 0.02 45 1009.8
20260502210112 60 243 3.0 9.0 0.00 0.02 0.02 47 1009.8
20260502210039 60 34 3.0 9.0 0.00 0.02 0.02 47 1009.3
20260502205915 60 292 3.0 9.0 0.00 0.02 0.02 51 1009.8
20260502205406 60 282 4.0 11.0 0.00 0.02 0.02 54 1009.8
20260502204856 60 11 3.0 11.0 0.00 0.02 0.02 51 1009.8
20260502204622 60 348 5.0 11.0 0.00 0.02 0.02 51 1009.8
20260502204538 60 5 3.0 9.0 0.00 0.02 0.02 52 1009.2
20260502204343 60 5 3.0 9.0 0.00 0.02 0.02 54 1009.8
20260502203854 60 282 2.0 9.0 0.00 0.02 0.02 51 1009.9
20260502203346 60 300 2.0 7.0 0.00 0.02 0.02 48 1009.9
20260502203110 60 30 2.0 5.0 0.00 0.02 0.02 51 1009.9
20260502203059 60 300 2.0 6.0 0.00 0.02 0.02 49 1009.3
20260502202853 60 313 3.0 5.0 0.00 0.02 0.02 49 1009.9
20260502202343 60 248 4.0 10.0 0.00 0.02 0.02 50 1010.0
20260502201855 60 53 4.0 10.0 0.00 0.02 0.02 52 1010.1
20260502201621 59 351 4.0 10.0 0.00 0.02 0.02 53 1010.2
20260502201536 59 5 3.0 8.0 0.00 0.02 0.02 52 1009.6
20260502201346 60 350 3.0 8.0 0.00 0.02 0.02 53 1010.2
20260502200836 60 344 4.0 9.0 0.00 0.02 0.02 51 1010.2
20260502200348 60 319 4.0 9.0 0.00 0.02 0.02 55 1010.2
20260502200115 59 284 3.0 8.0 0.00 0.02 0.02 54 1010.2
20260502200043 59 291 3.0 8.0 0.00 0.02 0.02 54 1009.6
20260502195836 59 257 3.0 4.0 0.00 0.02 0.02 55 1010.3
20260502195346 59 55 2.0 6.0 0.00 0.02 0.02 56 1010.4
20260502194856 59 219 3.0 6.0 0.00 0.02 0.02 55 1010.4
20260502194604 58 310 2.0 5.0 0.00 0.02 0.02 55 1010.5
20260502194541 58 310 2.0 7.0 0.00 0.02 0.02 53 1009.9
20260502194346 59 293 2.0 7.0 0.00 0.02 0.02 54 1010.5
20260502193840 59 342 4.0 7.0 0.00 0.02 0.02 53 1010.6
20260502193350 59 9 3.0 8.0 0.00 0.02 0.02 58 1010.7
20260502193128 58 323 2.0 8.0 0.00 0.02 0.02 57 1010.8
20260502193040 58 360 1.0 8.0 0.00 0.02 0.02 55 1010.1
20260502192855 58 52 2.0 8.0 0.00 0.02 0.02 58 1010.7
20260502192343 59 263 2.0 7.0 0.00 0.02 0.02 58 1010.9
20260502191912 59 309 2.0 6.0 0.00 0.02 0.02 61 1011.0
20260502191538 57 345 2.0 6.0 0.00 0.02 0.02 62 1010.4
20260502191501 57 24 2.0 6.0 0.00 0.02 0.02 63 1011.1
20260502191400 57 22 3.0 6.0 0.00 0.02 0.02 65 1011.0
20260502190849 57 281 2.0 8.0 0.00 0.02 0.02 63 1011.1
20260502190358 57 344 4.0 8.0 0.00 0.02 0.02 64 1011.1
20260502190037 56 29 3.0 7.0 0.00 0.02 0.02 64 1010.6
20260502190016 56 34 3.0 5.0 0.00 0.02 0.02 65 1011.2
20260502185906 57 355 2.0 6.0 0.00 0.02 0.02 65 1011.2
20260502185354 57 34 1.0 6.0 0.00 0.02 0.02 69 1011.2
20260502184906 57 346 3.0 6.0 0.00 0.02 0.02 66 1011.3
20260502184609 56 342 2.0 7.0 0.00 0.02 0.02 68 1011.3
20260502184545 56 0 2.0 7.0 0.00 0.02 0.02 67 1010.7
20260502184336 57 39 1.0 7.0 0.00 0.02 0.02 68 1011.3
20260502183847 57 35 2.0 6.0 0.00 0.02 0.02 68 1011.4
20260502183356 57 315 3.0 8.0 0.00 0.02 0.02 68 1011.3
20260502183118 56 28 1.0 8.0 0.00 0.02 0.02 68 1011.4
20260502183040 56 31 2.0 9.0 0.00 0.02 0.02 67 1010.8
20260502182844 57 15 3.0 8.0 0.00 0.02 0.02 68 1011.3
20260502182354 57 18 1.0 9.0 0.00 0.02 0.02 73 1011.4
20260502181844 57 334 2.0 7.0 0.00 0.02 0.02 69 1011.4
20260502181608 57 98 2.0 7.0 0.00 0.02 0.02 71 1011.4
20260502181556 57 111 1.0 7.0 0.00 0.02 0.02 71 1010.7
20260502181354 57 46 2.0 7.0 0.00 0.02 0.02 72 1011.4
20260502180843 57 331 3.0 12.0 0.00 0.02 0.02 71 1011.4
20260502180353 57 5 3.0 12.0 0.00 0.02 0.02 72 1011.5
20260502180117 56 355 5.0 12.0 0.00 0.02 0.02 73 1011.5
20260502170342 57 270 3.0 7.0 0.00 0.02 0.02 69 1011.7
20260502170108 56 321 1.0 7.0 0.00 0.02 0.02 71 1011.7
20260502164341 57 311 3.0 8.0 0.00 0.02 0.02 67 1011.9
20260502163850 57 259 2.0 8.0 0.00 0.02 0.02 69 1011.9
20260502163342 57 302 4.0 8.0 0.00 0.02 0.02 69 1011.9
20260502163118 56 297 2.0 6.0 0.00 0.02 0.02 68 1011.8
20260502163036 56 307 1.0 9.0 0.00 0.02 0.02 68 1011.3
20260502162849 57 219 2.0 9.0 0.00 0.02 0.02 69 1011.8
20260502162339 57 310 5.0 10.0 0.00 0.02 0.02 69 1011.9
20260502161849 57 311 3.0 10.0 0.00 0.02 0.02 70 1011.9
20260502161617 56 273 6.0 10.0 0.00 0.02 0.02 71 1012.0
20260502161542 56 283 5.0 10.0 0.00 0.02 0.02 70 1011.3
20260502161340 57 279 4.0 8.0 0.00 0.02 0.02 73 1012.0
20260502160850 56 243 3.0 9.0 0.00 0.02 0.02 70 1011.9
20260502160341 57 256 5.0 9.0 0.00 0.02 0.02 71 1012.1
20260502160108 56 275 2.0 7.0 0.00 0.02 0.02 71 1012.1
20260502152340 55 321 4.0 10.0 0.00 0.02 0.02 73 1012.2
20260502151850 56 297 3.0 10.0 0.00 0.02 0.02 74 1012.1
20260502151611 55 331 4.0 8.0 0.00 0.02 0.02 75 1012.2
20260502151542 55 290 3.0 8.0 0.00 0.02 0.02 75 1011.7
20260502151358 56 287 2.0 8.0 0.00 0.02 0.02 75 1012.2
20260502150847 55 296 1.0 8.0 0.00 0.02 0.02 79 1012.2
20260502150356 54 277 2.0 9.0 0.00 0.02 0.02 78 1012.3
20260502150117 54 294 3.0 9.0 0.00 0.02 0.02 78 1012.3
20260502140115 53 333 0.0 5.0 0.00 0.02 0.02 83 1012.3
20260502130348 51 262 1.0 3.0 0.00 0.02 0.02 92 1012.7
20260502130108 50 291 0.0 3.0 0.00 0.02 0.02 92 1012.7
20260502123339 50 311 1.0 3.0 0.00 0.02 0.02 95 1012.5
20260502123043 49 327 2.0 3.0 0.00 0.02 0.02 95 1012.0
20260502123013 49 329 1.0 3.0 0.00 0.02 0.02 96 1012.5
20260502122906 50 300 2.0 3.0 0.00 0.02 0.02 96 1012.5
20260502122355 50 342 0.0 2.0 0.00 0.02 0.02 96 1012.3
20260502121846 50 326 0.0 1.0 0.00 0.02 0.02 96 1012.4
20260502121609 49 355 0.0 1.0 0.00 0.02 0.02 97 1012.3
20260502121540 49 0 0.0 1.0 0.00 0.02 0.02 96 1011.7
20260502121355 50 355 0.0 1.0 0.00 0.02 0.02 97 1012.4
20260502120845 49 355 0.0 0.0 0.00 0.02 0.02 97 1012.4
20260502120357 49 355 0.0 1.0 0.00 0.02 0.02 96 1012.4
20260502120120 49 355 0.0 1.0 0.00 0.02 0.02 96 1012.4
20260502115843 49 355 0.0 1.0 0.00 0.02 0.02 96 1012.5
20260502115353 49 355 0.0 1.0 0.00 0.02 0.02 97 1012.4
20260502114901 49 355 0.0 0.0 0.00 0.02 0.02 97 1012.4
20260502114637 49 355 0.0 0.0 0.00 0.02 0.02 97 1012.4
20260502114544 48 0 0.0 0.0 0.00 0.02 0.02 96 1011.7
20260502114351 49 355 0.0 0.0 0.00 0.02 0.02 97 1012.3
20260502113841 49 355 0.0 0.0 0.00 0.02 0.02 96 1012.4
20260502113353 49 355 0.0 1.0 0.00 0.02 0.02 96 1012.4
20260502113118 48 355 0.0 1.0 0.00 0.02 0.02 96 1012.5
20260502113040 48 0 0.0 1.0 0.00 0.02 0.02 96 1011.9
20260502112840 48 355 0.0 1.0 0.00 0.02 0.02 96 1012.5
20260502112350 48 355 0.0 2.0 0.00 0.02 0.02 96 1012.2
20260502111900 48 355 0.0 2.0 0.00 0.02 0.02 96 1012.2
20260502111608 48 355 0.0 2.0 0.00 0.02 0.02 96 1012.2
20260502111543 48 0 0.0 1.0 0.00 0.02 0.02 96 1011.5
20260502111351 48 279 0.0 1.0 0.00 0.02 0.02 96 1012.3
20260502110840 48 279 0.0 1.0 0.00 0.02 0.02 96 1012.1
20260502110351 48 279 0.0 1.0 0.01 0.02 0.02 96 1012.1
20260502110115 48 279 0.0 1.0 0.01 0.02 0.02 96 1012.1
20260502110043 47 279 0.0 1.0 0.01 0.02 0.02 96 1011.4
20260502105857 48 279 0.0 1.0 0.01 0.02 0.02 96 1012.0
20260502105346 48 278 0.0 1.0 0.01 0.02 0.02 96 1012.0
20260502104837 48 278 0.0 1.0 0.01 0.02 0.02 96 1012.0
20260502104604 48 278 0.0 1.0 0.01 0.02 0.02 96 1012.0
20260502104542 48 0 0.0 1.0 0.01 0.02 0.02 96 1011.4
20260502104346 48 278 0.0 1.0 0.01 0.02 0.02 96 1012.1
20260502103836 48 278 0.0 2.0 0.02 0.02 0.02 96 1012.0
20260502103348 48 278 0.0 2.0 0.02 0.02 0.02 96 1011.9
20260502103116 48 278 0.0 2.0 0.02 0.02 0.02 96 1011.9
20260502103038 48 278 0.0 2.0 0.02 0.02 0.02 96 1011.3
20260502102917 48 278 0.0 1.0 0.02 0.02 0.02 96 1012.0
20260502102347 48 278 0.0 1.0 0.02 0.02 0.02 96 1011.9
20260502101836 48 278 0.0 1.0 0.02 0.02 0.02 96 1012.0
20260502101619 48 278 0.0 1.0 0.02 0.02 0.02 96 1012.0
20260502101543 48 0 0.0 1.0 0.02 0.02 0.02 95 1011.3
20260502101347 48 278 0.0 1.0 0.02 0.02 0.02 96 1011.8
20260502100840 48 278 0.0 0.0 0.02 0.02 0.02 96 1012.1
20260502100351 48 278 0.0 0.0 0.01 0.01 0.01 96 1012.1
20260502100113 48 278 0.0 0.0 0.01 0.01 0.01 96 1012.0
20260502091345 48 253 0.0 0.0 0.00 0.00 0.00 95 1012.0
20260502090855 48 253 0.0 0.0 0.00 0.00 0.00 95 1011.9
20260502090346 48 253 0.0 0.0 0.00 0.00 0.00 95 1012.0
20260502090112 48 253 0.0 0.0 0.00 0.00 0.00 95 1012.1
20260502071339 48 257 1.0 2.0 0.00 0.00 0.00 93 1012.2
20260502070850 48 319 0.0 0.0 0.00 0.00 0.00 93 1011.9
20260502070342 48 319 0.0 0.0 0.00 0.00 0.00 93 1011.8
20260502070110 47 319 0.0 0.0 0.00 0.00 0.00 93 1011.9
20260502070041 47 0 0.0 1.0 0.00 0.00 0.00 93 1011.1
20260502065910 48 319 0.0 1.0 0.00 0.00 0.00 93 1011.9
20260502065339 48 319 0.0 1.0 0.00 0.00 0.00 93 1011.8
20260502064850 48 319 0.0 1.0 0.00 0.00 0.00 93 1011.8
20260502064625 47 319 0.0 1.0 0.00 0.00 0.00 93 1011.9
20260502064554 47 0 0.0 1.0 0.00 0.00 0.00 92 1011.0
20260502064340 48 319 0.0 1.0 0.00 0.00 0.00 93 1011.9
20260502063849 48 319 0.0 2.0 0.00 0.00 0.00 93 1011.8
20260502063341 48 319 0.0 2.0 0.00 0.00 0.00 93 1011.8
20260502063131 48 319 0.0 1.0 0.00 0.00 0.00 92 1011.9
20260502063038 48 0 0.0 1.0 0.00 0.00 0.00 92 1011.0
20260502062847 48 319 0.0 1.0 0.00 0.00 0.00 92 1012.0
20260502062337 48 319 0.0 2.0 0.00 0.00 0.00 92 1012.0
20260502061847 48 319 0.0 2.0 0.00 0.00 0.00 92 1012.1
20260502061615 48 319 0.0 2.0 0.00 0.00 0.00 92 1012.2
20260502061543 48 319 0.0 1.0 0.00 0.00 0.00 91 1011.2
20260502061338 48 319 0.0 1.0 0.00 0.00 0.00 92 1011.9
20260502060848 48 319 0.0 1.0 0.00 0.00 0.00 92 1012.1
20260502060400 48 319 0.0 0.0 0.00 0.00 0.00 92 1012.2
20260502060104 48 319 0.0 1.0 0.00 0.00 0.00 92 1012.2
20260502060046 48 0 0.0 1.0 0.00 0.00 0.00 91 1011.3
20260502055846 48 319 0.0 1.0 0.00 0.00 0.00 92 1012.1
20260502055341 48 319 0.0 1.0 0.00 0.00 0.00 92 1012.1
20260502054908 48 319 0.0 0.0 0.00 0.00 0.00 91 1012.2
20260502054614 48 319 0.0 0.0 0.00 0.00 0.00 91 1012.2
20260502054543 48 0 0.0 0.0 0.00 0.00 0.00 91 1011.3
20260502054340 48 319 0.0 0.0 0.00 0.00 0.00 91 1012.2
20260502053850 48 319 0.0 1.0 0.00 0.00 0.00 91 1012.2
20260502053341 48 319 0.0 1.0 0.00 0.00 0.00 91 1012.3
20260502053121 48 319 0.0 1.0 0.00 0.00 0.00 91 1012.3
20260502053039 48 0 0.0 1.0 0.00 0.00 0.00 90 1011.3
20260502052847 48 319 0.0 0.0 0.00 0.00 0.00 91 1012.2
20260502052358 48 319 0.0 0.0 0.00 0.00 0.00 91 1012.2
20260502051846 48 319 0.0 1.0 0.00 0.00 0.00 91 1012.2
20260502051610 48 319 0.0 1.0 0.00 0.00 0.00 91 1012.3
20260502051540 48 0 0.0 1.0 0.00 0.00 0.00 90 1011.4
20260502051358 48 319 0.0 1.0 0.00 0.00 0.00 91 1012.3
20260502050846 48 319 0.0 0.0 0.00 0.00 0.00 90 1012.2
20260502050357 48 319 0.0 0.0 0.00 0.00 0.00 91 1012.1
20260502050116 48 319 0.0 1.0 0.00 0.00 0.00 90 1012.2
20260502050043 48 0 0.0 1.0 0.00 0.00 0.00 90 1011.3
20260502045841 48 319 0.0 1.0 0.00 0.00 0.00 90 1012.1
20260502045350 48 319 1.0 1.0 0.00 0.00 0.00 90 1012.2
20260502044857 48 319 0.0 0.0 0.00 0.00 0.00 90 1012.2
20260502044632 48 319 0.0 0.0 0.00 0.00 0.00 90 1012.3
20260502044543 48 0 0.0 1.0 0.00 0.00 0.00 90 1011.5
20260502044346 48 319 0.0 0.0 0.00 0.00 0.00 90 1012.4
20260502043915 48 319 0.0 1.0 0.00 0.00 0.00 90 1012.3
20260502043342 48 319 0.0 1.0 0.00 0.00 0.00 90 1012.2
20260502043132 48 319 0.0 1.0 0.00 0.00 0.00 90 1012.4
20260502043043 48 0 0.0 1.0 0.00 0.00 0.00 90 1011.6
20260502042848 48 319 0.0 1.0 0.00 0.00 0.00 90 1012.4
20260502042335 48 319 0.0 1.0 0.00 0.00 0.00 90 1012.4
20260502041845 48 319 0.0 1.0 0.00 0.00 0.00 90 1012.5
20260502041613 48 319 0.0 1.0 0.00 0.00 0.00 90 1012.4
20260502041541 48 0 0.0 1.0 0.00 0.00 0.00 89 1011.6
20260502041356 48 319 0.0 1.0 0.00 0.00 0.00 90 1012.4
20260502040846 48 319 0.0 1.0 0.00 0.00 0.00 90 1012.3
20260502040356 48 319 0.0 1.0 0.00 0.00 0.00 89 1012.4
20260502040051 48 0 0.0 1.0 0.00 0.00 0.00 89 1011.6
20260502035904 48 319 0.0 1.0 0.00 0.00 0.00 89 1012.3
20260502035353 48 319 0.0 1.0 0.00 0.00 0.00 89 1012.2
20260502034842 48 319 1.0 2.0 0.00 0.00 0.00 89 1012.2
20260502034611 48 319 0.0 2.0 0.00 0.00 0.00 89 1012.3
20260502034536 48 0 1.0 2.0 0.00 0.00 0.00 88 1011.7
20260502034352 48 319 1.0 2.0 0.00 0.00 0.00 89 1012.4
20260502033904 48 44 0.0 1.0 0.00 0.00 0.00 89 1012.1
20260502033352 48 44 0.0 1.0 0.00 0.00 0.00 88 1012.2
20260502033118 48 44 0.0 1.0 0.00 0.00 0.00 88 1012.3
20260502033041 48 0 0.0 1.0 0.00 0.00 0.00 88 1011.6
20260502032840 48 44 0.0 1.0 0.00 0.00 0.00 88 1012.3
20260502032351 48 44 0.0 1.0 0.00 0.00 0.00 88 1012.3
20260502031841 48 44 0.0 0.0 0.00 0.00 0.00 88 1012.4
20260502031610 48 44 0.0 1.0 0.00 0.00 0.00 88 1012.4
20260502031547 48 0 0.0 1.0 0.00 0.00 0.00 87 1011.6
20260502031351 48 44 0.0 1.0 0.00 0.00 0.00 87 1012.4
20260502030840 48 44 0.0 1.0 0.00 0.00 0.00 87 1012.5
20260502030352 48 44 0.0 1.0 0.00 0.00 0.00 87 1012.4
20260502030118 48 44 0.0 1.0 0.00 0.00 0.00 87 1012.6
20260502030040 48 0 0.0 2.0 0.00 0.00 0.00 87 1011.9
20260502025839 48 44 0.0 2.0 0.00 0.00 0.00 87 1012.5
20260502025349 49 44 0.0 2.0 0.00 0.00 0.00 87 1012.6
20260502024839 49 44 0.0 1.0 0.00 0.00 0.00 86 1012.6
20260502024607 48 44 0.0 0.0 0.00 0.00 0.00 86 1012.6
20260502024537 48 0 0.0 1.0 0.00 0.00 0.00 86 1011.8
20260502024410 49 44 0.0 1.0 0.00 0.00 0.00 86 1012.5
20260502023347 49 44 1.0 1.0 0.00 0.00 0.00 85 1012.5
20260502023111 49 44 0.0 1.0 0.00 0.00 0.00 85 1012.6
20260502023050 49 0 0.0 1.0 0.00 0.00 0.00 84 1011.9
20260502022853 49 44 0.0 1.0 0.00 0.00 0.00 85 1012.5
20260502022343 49 44 0.0 1.0 0.00 0.00 0.00 84 1012.6
20260502021853 50 44 0.0 1.0 0.00 0.00 0.00 84 1012.5
20260502021621 49 44 0.0 1.0 0.00 0.00 0.00 83 1012.5
20260502021544 49 0 0.0 1.0 0.00 0.00 0.00 83 1011.8
20260502021344 50 44 0.0 1.0 0.00 0.00 0.00 83 1012.4
20260502020835 50 44 0.0 1.0 0.00 0.00 0.00 83 1012.5
20260502020410 50 44 0.0 1.0 0.00 0.00 0.00 82 1012.6
20260502020114 50 44 0.0 1.0 0.00 0.00 0.00 82 1012.7
20260502020053 50 0 0.0 1.0 0.00 0.00 0.00 82 1012.0
20260502015835 50 56 0.0 1.0 0.00 0.00 0.00 82 1012.6
20260502015347 51 56 0.0 1.0 0.00 0.00 0.00 82 1012.5
20260502014841 51 56 0.0 2.0 0.00 0.00 0.00 81 1012.4
20260502014603 50 56 0.0 2.0 0.00 0.00 0.00 81 1012.3
20260502014549 50 56 0.0 2.0 0.00 0.00 0.00 81 1011.8
20260502014406 51 69 0.0 2.0 0.00 0.00 0.00 81 1012.3
20260502013838 51 69 1.0 2.0 0.00 0.00 0.00 80 1012.3
20260502013407 52 17 1.0 2.0 0.00 0.00 0.00 80 1012.4
20260502013110 51 30 0.0 2.0 0.00 0.00 0.00 80 1012.4
20260502013037 52 92 0.0 2.0 0.00 0.00 0.00 79 1011.8
20260502012836 52 154 1.0 2.0 0.00 0.00 0.00 79 1012.3
20260502012345 53 9 1.0 1.0 0.00 0.00 0.00 78 1012.3
20260502011836 53 9 0.0 1.0 0.00 0.00 0.00 77 1012.3
20260502011546 53 0 0.0 1.0 0.00 0.00 0.00 76 1011.8
20260502011509 53 9 0.0 1.0 0.00 0.00 0.00 77 1012.4
20260502011408 53 9 0.0 0.0 0.00 0.00 0.00 77 1012.3